sat.trackr.live / text

‹ back to catalog

STARLINK-4475

NORAD 53545 · 2022-101U

PAYLOAD ACTIVE UNKNOWN

§ Identity

Operator
Country
US
Launch date
2022-08-19
Launch site
AFETR
Launch vehicle
Mass (kg)
RCS (m²)

Purposes: comms

External: N2YO · Heavens-Above · Gunter

§ Orbital elements

Epoch: 2026-05-25T03:22:22.910016Z

Period
95.44 min
Inclination
53.2150°
Eccentricity
0.0001932
Mean motion
15.08856577 rev/d
Perigee alt
538.4 km
Apogee alt
541.0 km
Semi-major
6,917.8 km
B*
1.8547e-4
RAAN
80.9148°
Arg perigee
60.5296°
Mean anomaly
299.5888°
Rev number
20,853

§ Raw data

STARLINK-44751 53545U 22101U   26145.14054294  .00002666  00000+0  18547-3 0  99922 53545  53.2150  80.9148 0001932  60.5296 299.5888 15.08856577208532

JSON: /api/v1/satellites/53545 · /tle

For live sub-satellite position, see the globe view (requires WebGL).

§ Visibility from observer

Set your observer location to see the next 7 days of passes ≥ 10°. The values pass through the URL so the page stays shareable.

No JS? Fill the form by hand. The geolocation button needs JavaScript.